Home   Weather   32°17'N, 81°14'W   Past weeks
Flag for USA

Past Weather in 32°17'N, 81°14'W, USA — Yesterday and Last 2 Weeks

Now
71 °F

Passing clouds.


Feels Like: 69 °F
Forecast: 73 / 70 °F
Wind: No wind

Location: Hunter U. S. Army Airfield

Current Time: Oct 15, 2019 at 3:16:07 am

Latest Report: Oct 15, 2019 at 1:56 am


Visibility: 9 mi

Pressure: 30.06 "Hg

Humidity: 88%

Dew Point: 67 °F

Location of 32°17'N, 81°14'WLocation

Past Weather in 32°17'N, 81°14'W — Graph

°F

32°17'N, 81°14'W Temperature Yesterday

Maximum temperature yesterday: 86 °F (at 4:56 pm)
Minimum temperature yesterday: 68 °F (at 7:05 am)
Average temperature yesterday: 75 °F

High & Low Weather Summary for the Past Weeks

 TemperatureHumidityPressure
High92 °F (Sep 30, 12:56 pm)94% (Oct 2, 6:56 am)30.15 "Hg (Oct 2, 6:56 am)
Low58 °F (Oct 12, 5:56 am)33% (Oct 12, 2:56 pm)29.90 "Hg (Oct 8, 3:56 am)
Average75 °F78%30.04 "Hg
* Reported Sep 30 12:56 am — Oct 15 12:56 am, 32°17'N, 81°14'W. Weather by CustomWeather, © 2019

Note: Actual official high and low records may vary slightly from our data, if they occured in-between our weather recording intervals... More about our weather records

Advertising

32°17'N, 81°14'W Weather History for the Previous 24 Hours

Scroll right to see more
 ConditionsComfort  
Time TempWeatherWind HumidityBarometerVisibility
12:56 am
Tue, Oct 15
71 °FPassing clouds.No wind87%30.06 "Hg7 mi
11:56 pm
Mon, Oct 14
72 °FClear.No wind82%30.07 "Hg7 mi
10:56 pm72 °FPassing clouds.No wind81%30.07 "Hg6 mi
9:56 pm72 °FClear.No wind80%30.06 "Hg8 mi
8:56 pm73 °FPassing clouds.No wind78%30.04 "Hg8 mi
7:56 pm75 °FClear.No wind71%30.02 "Hg10 mi
6:56 pm81 °FHaze.No wind54%30.02 "Hg5 mi
5:56 pm85 °FPassing clouds.3 mph48%30.01 "Hg10 mi
4:56 pm86 °FSunny.3 mph48%30.01 "Hg10 mi
3:56 pm86 °FPassing clouds.No wind50%30.01 "Hg10 mi
2:56 pm85 °FSunny.8 mph53%30.02 "Hg10 mi
1:56 pm83 °FPassing clouds.No wind60%30.04 "Hg10 mi
12:56 pm84 °FSunny.7 mph56%30.05 "Hg10 mi
11:56 am80 °FSunny.8 mph65%30.06 "Hg10 mi
10:56 am78 °FSunny.6 mph80%30.07 "Hg10 mi
9:56 am73 °FSunny.7 mph91%30.07 "Hg10 mi
8:56 am69 °FSunny.3 mph92%30.06 "Hg10 mi
7:58 am70 °FSunny.3 mph88%30.04 "Hg10 mi
7:56 am69 °FSunny.3 mph91%30.04 "Hg10 mi
7:34 am68 °FPassing clouds.6 mph94%30.05 "Hg10 mi
7:05 am68 °FPassing clouds.No wind94%30.05 "Hg10 mi
6:56 am69 °FLight rain. Passing clouds.5 mph90%30.05 "Hg10 mi
6:03 am70 °FThundershowers. Passing clouds.6 mph88%30.03 "Hg10 mi
5:56 am70 °FThunderstorms. Passing clouds.5 mph88%30.01 "Hg10 mi
5:26 am72 °FThundershowers. Passing clouds.3 mph83%30.04 "Hg7 mi
4:56 am71 °FLight rain. Passing clouds.No wind85%30.03 "Hg10 mi
3:56 am71 °FPassing clouds.No wind85%30.02 "Hg10 mi
Weather by CustomWeather, © 2019

See weather overview